TimeCST,TemperatureF,Dew PointF,Humidity,Sea Level PressureIn,VisibilityMPH,Wind Direction,Wind SpeedMPH,Gust SpeedMPH,PrecipitationIn,Events,Conditions,WindDirDegrees,DateUTC
12:15 AM,17.2,12.6,82,30.14,7.0,North,13.8,-,N/A,,Overcast,360,2013-12-14 06:15:00
12:35 AM,17.2,12.2,81,30.14,7.0,North,12.7,-,N/A,,Overcast,360,2013-12-14 06:35:00
12:55 AM,17.2,12.6,82,30.15,7.0,North,12.7,-,N/A,,Overcast,350,2013-12-14 06:55:00
1:15 AM,17.1,12.2,81,30.13,7.0,North,15.0,-,N/A,,Overcast,350,2013-12-14 07:15:00
1:35 AM,16.7,12.0,82,30.13,7.0,North,10.4,-,N/A,,Overcast,350,2013-12-14 07:35:00
1:55 AM,16.9,12.2,82,30.15,7.0,NNW,8.1,-,N/A,,Overcast,340,2013-12-14 07:55:00
2:15 AM,16.7,11.7,81,30.15,10.0,North,9.2,-,N/A,,Overcast,350,2013-12-14 08:15:00
2:35 AM,16.2,10.9,80,30.15,10.0,NNW,6.9,16.1,N/A,,Scattered Clouds,340,2013-12-14 08:35:00
2:55 AM,15.8,11.1,82,30.16,10.0,NNW,6.9,-,N/A,,Mostly Cloudy,340,2013-12-14 08:55:00
3:15 AM,15.8,11.1,82,30.15,10.0,NNW,8.1,-,N/A,,Overcast,340,2013-12-14 09:15:00
3:35 AM,15.3,10.2,80,30.16,10.0,NNW,6.9,-,N/A,,Scattered Clouds,340,2013-12-14 09:35:00
3:55 AM,14.9,9.9,80,30.16,10.0,NNW,5.8,-,N/A,,Clear,340,2013-12-14 09:55:00
4:15 AM,14.4,9.7,82,30.16,10.0,NNW,5.8,-,N/A,,Scattered Clouds,340,2013-12-14 10:15:00
4:35 AM,14.7,10.2,82,30.17,10.0,NNW,11.5,-,N/A,,Mostly Cloudy,330,2013-12-14 10:35:00
4:55 AM,15.4,10.9,82,30.16,10.0,NNW,8.1,-,N/A,,Overcast,340,2013-12-14 10:55:00
5:15 AM,15.8,11.3,82,30.15,10.0,NNW,10.4,-,N/A,,Overcast,340,2013-12-14 11:15:00
5:35 AM,16.2,11.7,82,30.16,10.0,NNW,12.7,17.3,N/A,,Overcast,340,2013-12-14 11:35:00
5:55 AM,15.8,11.1,82,30.16,10.0,NNW,15.0,-,N/A,,Overcast,330,2013-12-14 11:55:00
6:15 AM,14.9,10.4,82,30.17,10.0,NNW,13.8,17.3,N/A,,Overcast,340,2013-12-14 12:15:00
6:35 AM,14.5,10.0,82,30.18,10.0,NNW,11.5,-,N/A,,Overcast,330,2013-12-14 12:35:00
6:55 AM,14.2,9.9,83,30.18,10.0,North,6.9,-,N/A,,Overcast,350,2013-12-14 12:55:00
7:15 AM,14.0,9.7,83,30.19,10.0,NNW,6.9,-,N/A,,Overcast,340,2013-12-14 13:15:00
7:35 AM,13.1,9.1,84,30.20,10.0,NW,8.1,-,N/A,,Mostly Cloudy,320,2013-12-14 13:35:00
7:55 AM,12.0,8.4,85,30.20,7.0,NW,6.9,-,N/A,,Scattered Clouds,320,2013-12-14 13:55:00
8:15 AM,13.3,9.1,84,30.20,10.0,NNW,9.2,-,N/A,,Mostly Cloudy,330,2013-12-14 14:15:00
8:35 AM,13.8,8.6,80,30.19,10.0,NNW,9.2,-,N/A,,Overcast,330,2013-12-14 14:35:00
8:55 AM,14.5,8.8,78,30.20,10.0,NNW,5.8,-,N/A,,Overcast,340,2013-12-14 14:55:00
9:15 AM,15.4,9.3,77,30.20,10.0,NW,4.6,-,N/A,,Overcast,320,2013-12-14 15:15:00
9:35 AM,16.3,10.0,76,30.20,10.0,NNW,8.1,-,N/A,,Overcast,330,2013-12-14 15:35:00
9:55 AM,17.2,11.3,78,30.20,10.0,NNW,12.7,17.3,N/A,,Overcast,340,2013-12-14 15:55:00
10:15 AM,17.6,11.8,78,30.21,10.0,NNW,11.5,19.6,N/A,,Overcast,340,2013-12-14 16:15:00
10:35 AM,18.3,12.0,76,30.21,10.0,NNW,10.4,-,N/A,,Overcast,340,2013-12-14 16:35:00
10:55 AM,18.5,12.6,78,30.21,10.0,NW,12.7,18.4,N/A,,Overcast,320,2013-12-14 16:55:00
11:15 AM,19.4,13.1,76,30.21,10.0,NNW,12.7,17.3,N/A,,Overcast,330,2013-12-14 17:15:00
11:35 AM,19.6,13.6,78,30.20,10.0,NNW,12.7,-,N/A,,Overcast,340,2013-12-14 17:35:00
11:55 AM,20.1,14.0,77,30.19,10.0,North,11.5,-,N/A,,Overcast,350,2013-12-14 17:55:00
12:15 PM,20.7,14.5,77,30.18,10.0,NNW,9.2,-,N/A,,Overcast,330,2013-12-14 18:15:00
12:35 PM,21.2,15.6,79,30.18,10.0,NNW,10.4,-,N/A,,Overcast,330,2013-12-14 18:35:00
12:55 PM,22.1,16.0,77,30.17,10.0,NW,9.2,-,N/A,,Overcast,310,2013-12-14 18:55:00
1:15 PM,22.5,16.7,79,30.17,10.0,NNW,8.1,-,N/A,,Overcast,340,2013-12-14 19:15:00
1:35 PM,23.5,17.2,77,30.16,10.0,NW,10.4,-,N/A,,Overcast,320,2013-12-14 19:35:00
1:55 PM,24.4,17.6,75,30.15,10.0,NNW,9.2,-,N/A,,Overcast,330,2013-12-14 19:55:00
2:15 PM,25.7,19.0,76,30.15,10.0,NW,15.0,-,N/A,,Overcast,310,2013-12-14 20:15:00
2:35 PM,25.7,19.4,77,30.15,10.0,NW,13.8,-,N/A,,Overcast,320,2013-12-14 20:35:00
2:55 PM,27.1,19.4,73,30.15,10.0,NW,10.4,-,N/A,,Scattered Clouds,320,2013-12-14 20:55:00
3:15 PM,28.2,19.6,70,30.15,10.0,NNW,13.8,-,N/A,,Clear,330,2013-12-14 21:15:00
3:35 PM,28.9,19.9,69,30.14,10.0,NW,9.2,-,N/A,,Clear,310,2013-12-14 21:35:00
3:55 PM,28.2,19.9,71,30.14,10.0,NNW,9.2,-,N/A,,Mostly Cloudy,330,2013-12-14 21:55:00
4:15 PM,28.0,19.9,72,30.14,10.0,NW,3.5,-,N/A,,Overcast,310,2013-12-14 22:15:00
4:35 PM,28.4,20.1,71,30.13,10.0,Calm,Calm,-,N/A,,Overcast,0,2013-12-14 22:35:00
4:55 PM,27.7,19.9,73,30.13,10.0,Calm,Calm,-,N/A,,Overcast,0,2013-12-14 22:55:00
5:15 PM,26.6,19.6,75,30.13,10.0,Calm,Calm,-,N/A,,Overcast,0,2013-12-14 23:15:00
5:35 PM,24.4,18.1,77,30.13,10.0,Calm,Calm,-,N/A,,Scattered Clouds,0,2013-12-14 23:35:00
5:55 PM,22.1,17.4,82,30.13,10.0,North,3.5,-,N/A,,Scattered Clouds,350,2013-12-14 23:55:00
6:15 PM,20.3,15.8,83,30.13,10.0,Calm,Calm,-,N/A,,Scattered Clouds,0,2013-12-15 00:15:00
6:35 PM,16.3,12.7,86,30.12,10.0,Calm,Calm,-,N/A,,Scattered Clouds,0,2013-12-15 00:35:00
6:55 PM,18.1,14.5,86,30.12,7.0,Calm,Calm,-,N/A,,Clear,0,2013-12-15 00:55:00
7:15 PM,19.4,16.5,89,30.12,7.0,East,3.5,-,N/A,,Clear,90,2013-12-15 01:15:00
7:35 PM,14.7,10.8,84,30.13,10.0,Calm,Calm,-,N/A,,Clear,0,2013-12-15 01:35:00
7:55 PM,13.6,10.0,86,30.13,7.0,SE,3.5,-,N/A,,Clear,140,2013-12-15 01:55:00
8:15 PM,16.2,13.1,88,30.12,7.0,Calm,Calm,-,N/A,,Clear,0,2013-12-15 02:15:00
8:35 PM,16.7,14.4,91,30.11,7.0,Calm,Calm,-,N/A,,Scattered Clouds,0,2013-12-15 02:35:00
8:55 PM,17.2,14.0,87,30.11,7.0,Calm,Calm,-,N/A,,Clear,0,2013-12-15 02:55:00
9:15 PM,18.9,14.5,83,30.11,10.0,Calm,Calm,-,N/A,,Clear,0,2013-12-15 03:15:00
9:35 PM,16.7,13.5,87,30.11,10.0,Calm,Calm,-,N/A,,Scattered Clouds,0,2013-12-15 03:35:00
9:55 PM,16.5,13.1,86,30.11,7.0,Calm,Calm,-,N/A,,Mostly Cloudy,0,2013-12-15 03:55:00
10:15 PM,17.1,13.5,86,30.11,10.0,Calm,Calm,-,N/A,,Overcast,0,2013-12-15 04:15:00
10:35 PM,18.5,15.3,87,30.09,7.0,SE,3.5,-,N/A,,Overcast,140,2013-12-15 04:35:00
10:55 PM,19.6,16.3,87,30.09,7.0,ESE,3.5,-,N/A,,Overcast,120,2013-12-15 04:55:00
11:15 PM,20.1,16.7,87,30.07,7.0,SE,4.6,-,N/A,,Overcast,130,2013-12-15 05:15:00
11:35 PM,20.8,17.4,87,30.07,7.0,ESE,3.5,-,N/A,,Overcast,110,2013-12-15 05:35:00
11:55 PM,20.1,16.5,86,30.06,7.0,ESE,4.6,-,N/A,,Overcast,120,2013-12-15 05:55:00